[TLELIST] Archives

 

[TLELIST] Current TLEs

June 24th 2025 PDT

HST 1 20580U 90037B 25174.91558896 .00004148 00000-0 15150-3 0 9996 2 20580 28.4691 359.3068 0002339 158.7567 201.3125 15.25383683733716 ISS (ZARYA) 1 25544U 98067A 25175.16104992 .00007620 00000-0 14032-3 0 9990 2 25544 51.6364 272.5136 0002157 282.3316 77.7431 15.50212564516241 CXO 1 25867U 99040B 25174.72419316 .00000421 00000-0 00000+0 0 9998 2 25867 49.6806 129.3423 8417193 309.6282 0.0394 0.37805500 27126 ...Continue Reading

[TLELIST] [TLELIST] Current TLEs

June 24th 2025 PDT

HST 1 20580U 90037B 25174.91558896 .00004148 00000-0 15150-3 0 9996 2 20580 28.4691 359.3068 0002339 158.7567 201.3125 15.25383683733716 ISS (ZARYA) 1 25544U 98067A 25175.16104992 .00007620 00000-0 14032-3 0 9990 2 25544 51.6364 272.5136 0002157 282.3316 77.7431 15.50212564516241 CXO 1 25867U 99040B 25174.72419316 .00000421 00000-0 00000+0 0 9998 2 25867 49.6806 129.3423 8417193 309.6282 0.0394 0.37805500 27126 ...Continue Reading

[TLELIST] Current TLEs

June 23rd 2025 PDT

HST 1 20580U 90037B 25173.67249660 .00004199 00000-0 15349-3 0 9990 2 20580 28.4690 7.7332 0002418 146.3870 213.6878 15.25373989733529 ISS (ZARYA) 1 25544U 98067A 25174.12960992 .00008687 00000-0 15892-3 0 9994 2 25544 51.6363 277.6254 0002153 276.8659 83.2085 15.50196020516088 CXO 1 25867U 99040B 25174.72419316 .00000421 00000-0 00000+0 0 9998 2 25867 49.6806 129.3423 8417193 309.6282 0.0394 0.37805500 27126 ...Continue Reading

[TLELIST] Current TLEs

June 22nd 2025 PDT

HST 1 20580U 90037B 25172.82195484 .00004547 00000-0 16690-3 0 9997 2 20580 28.4691 13.4987 0002458 137.6667 222.4117 15.25368140733393 ISS (ZARYA) 1 25544U 98067A 25173.17490985 .00010712 00000-0 19418-3 0 9998 2 25544 51.6385 282.3529 0001886 270.6693 158.0157 15.50179970515931 CXO 1 25867U 99040B 25174.72419316 .00000421 00000-0 00000+0 0 9998 2 25867 49.6806 129.3423 8417193 309.6282 0.0394 0.37805500 27126 ...Continue Reading

[TLELIST] Current TLEs

June 22nd 2025 PDT

HST 1 20580U 90037B 25172.82195484 .00004547 00000-0 16690-3 0 9997 2 20580 28.4691 13.4987 0002458 137.6667 222.4117 15.25368140733393 ISS (ZARYA) 1 25544U 98067A 25173.17490985 .00010712 00000-0 19418-3 0 9998 2 25544 51.6385 282.3529 0001886 270.6693 158.0157 15.50179970515931 CXO 1 25867U 99040B 25174.72419316 .00000421 00000-0 00000+0 0 9998 2 25867 49.6806 129.3423 8417193 309.6282 0.0394 0.37805500 27126 ...Continue Reading

[TLELIST] Current TLEs

June 21st 2025 PDT

HST 1 20580U 90037B 25171.90598306 .00004595 00000-0 16881-3 0 9990 2 20580 28.4692 19.7075 0002471 127.9241 232.1577 15.25360337733259 ISS (ZARYA) 1 25544U 98067A 25172.20849747 .00011278 00000-0 20415-3 0 9992 2 25544 51.6382 287.1438 0001872 268.9112 163.0409 15.50159842515786 CXO 1 25867U 99040B 25174.72419316 .00000421 00000-0 00000+0 0 9998 2 25867 49.6806 129.3423 8417193 309.6282 0.0394 0.37805500 27126 ...Continue Reading

[TLELIST] Current TLEs

June 20th 2025 PDT

HST 1 20580U 90037B 25170.85915241 .00004909 00000-0 18095-3 0 9992 2 20580 28.4692 26.8031 0002532 117.2583 242.8270 15.25351516733098 ISS (ZARYA) 1 25544U 98067A 25171.16414757 .00011840 00000-0 21409-3 0 9994 2 25544 51.6359 292.3218 0002101 262.4081 97.6669 15.50136952515624 CXO 1 25867U 99040B 25172.08015401 .00000475 00000-0 00000-0 0 9992 2 25867 49.5964 129.5154 8420713 309.5375 0.1969 0.37808796 15954 ...Continue Reading

[TLELIST] Current TLEs

June 19th 2025 PDT

HST 1 20580U 90037B 25169.94317005 .00005179 00000-0 19140-3 0 9996 2 20580 28.4692 33.0120 0002579 108.2735 251.8140 15.25343733732959 ISS (ZARYA) 1 25544U 98067A 25169.83421446 .00020848 00000-0 36836-3 0 9996 2 25544 51.6381 298.9095 0001663 263.2903 230.1081 15.50303655515413 CXO 1 25867U 99040B 25172.08015401 .00000475 00000-0 00000-0 0 9992 2 25867 49.5964 129.5154 8420713 309.5375 0.1969 0.37808796 15954 ...Continue Reading

[TLELIST] Current TLEs

June 18th 2025 PDT

HST 1 20580U 90037B 25169.02718269 .00005169 00000-0 19105-3 0 9992 2 20580 28.4692 39.2207 0002605 98.8968 261.1922 15.25335009733078 ISS (ZARYA) 1 25544U 98067A 25169.36783567 .00009676 00000-0 17562-3 0 9990 2 25544 51.6385 301.2195 0001090 254.1051 154.7008 15.50272883515343 CXO 1 25867U 99040B 25172.07944975 .00000475 00000-0 00000+0 0 9997 2 25867 49.5963 129.5153 8420733 309.5377 0.1003 0.37807925 27119 ...Continue Reading

[TLELIST] Current TLEs

June 17th 2025 PDT

HST 1 20580U 90037B 25167.84947678 .00005020 00000-0 18538-3 0 9993 2 20580 28.4693 47.2035 0002618 86.4797 273.6097 15.25323519732639 ISS (ZARYA) 1 25544U 98067A 25168.46988390 .00010795 00000-0 19508-3 0 9997 2 25544 51.6391 305.6704 0001084 257.2134 176.8669 15.50259131515207 CXO 1 25867U 99040B 25169.43568764 .00000593 00000-0 00000+0 0 9992 2 25867 49.5074 129.6926 8422281 309.4614 0.2281 0.37804295 27109 ...Continue Reading
  • This mailing list is a public mailing list - anyone may join or leave, at any time.
  • This mailing list is announce-only.

International Space Station (ISS) / Hubble Space Telescope (HST) / Chandra X-Ray Observatory Orbital Data via EMAIL

Privacy Policy:

Private list